Preview of NWS' New Version of Forecast
This preview is not operational and should not be used for support decisions.

Regional Weather Roundup (RWR)

Issued by National Weather Service (NWS)

                            
000
ASUS43 KMKX 171721
RWRWI 

WISCONSIN REGIONAL WEATHER ROUNDUP
NATIONAL WEATHER SERVICE MILWAUKEE/SULLIVAN WI
1200 PM CDT SAT AUG 17 2019

NOTE: "FAIR" INDICATES FEW OR NO CLOUDS BELOW 12,000 FEET WITH NO
SIGNIFICANT WEATHER AND/OR OBSTRUCTIONS TO VISIBILITY.

WIZ001-002-006>008-014>016-023>028-171800-
NORTHWEST WISCONSIN
  
CITY           SKY/WX    TMP DP  RH WIND       PRES   REMARKS
SUPERIOR ARPT  FAIR      81  60  48 SW9G18    29.81S HX  82           
ASHLAND        FAIR      81  58  45 SW15      29.85S HX  81           
HAYWARD        FAIR      79  59  50 S14       29.87F HX  80           
SIREN          FAIR      81  57  44 SW13      29.85F HX  81           
CUMBERLAND     FAIR      75  59  57 S9        29.88S                  
RICE LAKE      FAIR      78  60  53 SW8       29.89S HX  80           
CHETEK         FAIR      77  63  60 S5        29.88F                  
LADYSMITH      FAIR      78  63  59 S8        29.90F HX  80           
EAU CLAIRE     FAIR      77  60  55 S8        29.87F                  
MENOMONIE      FAIR      75  59  58 S10       29.88S                  
NEW RICHMOND   FAIR      77  59  53 S6        29.87S                  
OSCEOLA        FAIR      77  59  54 S13G18    29.89S                  
$$
 
WIZ003>005-009-010-017-018-171800-
NORTH CENTRAL WISCONSIN
  
CITY           SKY/WX    TMP DP  RH WIND       PRES   REMARKS
MANITOWISH WTR FAIR      74  60  60 SW7       29.90F                  
ARBOR VITAE    FAIR      77  64  63 SW7       29.91S                  
WOODRUFF       FAIR      77  64  63 SW7       29.91S                  
RHINELANDER    FAIR      76  60  57 SW6       29.92R                  
EAGLE RIVER    FAIR      75  58  53 SW5       29.91                   
LAND O LAKES   FAIR      75  57  53 SW3       29.92S                  
PHILLIPS       FAIR      76  62  62 S3        29.88F                  
TOMAHAWK       FAIR      73  62  67 CALM      29.91F                  
MEDFORD        FAIR      73  62  68 S5        29.90F                  
MERRILL        FAIR      76  62  62 CALM      29.90F                  
$$
 
WIZ029-030-035-036-043>047-171800-
CENTRAL WISCONSIN
  
CITY           SKY/WX    TMP DP  RH WIND       PRES   REMARKS
WAUSAU         FAIR      75  64  68 VRB5      29.90S                  
MOSINEE        MOSUNNY   73  66  78 CALM      29.92F                  
MARSHFIELD     FAIR      77  64  64 E3        29.90F                  
STEVENS POINT  FAIR      75  60  60 S5        29.90F                  
WAUPACA        FAIR      79  62  57 SW5       29.90F HX  80           
WAUTOMA        FAIR      76  64  66 S5        29.91F                  
WISC RAPIDS    FAIR      75  62  64 SW5       29.90F                  
CAMP DOUGLAS   FAIR      77  65  65 S6        29.89F                  
$$
 
WIZ011>013-019>022-031-037>040-048>050-171800-
NORTHEAST WISCONSIN
  
CITY           SKY/WX    TMP DP  RH WIND       PRES   REMARKS
ANTIGO         FAIR      76  60  57 S5        29.92F                  
SHAWANO        FAIR      79  62  55 W6        29.90S HX  80           
OCONTO         FAIR      74  66  74 SE3       29.89F                  
STURGEON BAY   FAIR      75  66  73 NW3       29.90F                  
GREEN BAY      FAIR      78  64  61 W5        29.90F HX  80           
MANITOWOC      FAIR      77  63  61 VRB3      29.90F                  
APPLETON       PTSUNNY   75  55  50 SW7       29.90F                  
CLINTONVILLE   FAIR      78  60  54 SW3       29.89F                  
OSHKOSH        FAIR      76  62  62 VRB5      29.89F                  
$$
 
WIZ032>034-041-042-053>061-171800-
SOUTHWEST WISCONSIN
  
CITY           SKY/WX    TMP DP  RH WIND       PRES   REMARKS
LA CROSSE      FAIR      78  61  55 S6        29.87F HX  80           
SPARTA         FAIR      75  61  60 CALM      29.90F                  
VIROQUA        FAIR      76  65  67 S5        29.91R                  
BOSCOBEL       FAIR      79  62  56 VRB3      29.89S HX  80           
PRAIRIE DU CHI FAIR      75  58  55 SE6       29.88F                  
PLATTEVILLE    FAIR      75  66  73 E7        29.89F                  
$$

WIZ056-057-062-063-064-067-068-171800-
SOUTH CENTRAL WISCONSIN
  
CITY           SKY/WX    TMP DP  RH WIND       PRES   REMARKS
REEDSBURG      FAIR      76  62  61 CALM      29.89F                  
BARABOO/DELLS  FAIR      76  60  57 CALM      29.90F                  
LONE ROCK      NOT AVBL                                               
MINERAL POINT  FAIR      79  63  57 SE5       29.92S HX  80           
MADISON        FAIR      77  59  53 CALM      29.90R                  
MIDDLETON      FAIR     N/A N/A N/A SE6       29.91S                  
WATERTOWN      FAIR      77  62  59 SW3       29.91R                  
MONROE         FAIR      77  61  56 CALM      29.91F                  
JANESVILLE     MOSUNNY   81  63  54 SE6       29.90F HX  82           
$$
 
WIZ051-052-058>065-066-070>072-171800-
SOUTHEAST WISCONSIN
  
CITY           SKY/WX    TMP DP  RH WIND       PRES   REMARKS
MILWAUKEE      PTSUNNY   81  61  50 S7        29.91S HX  82           
WAUKESHA       SUNNY     75  57  53 S3        29.93S                  
MILWAUKEE/TIMM SUNNY     77  57  50 CALM      29.92S                  
RACINE         FAIR      79  63  57 E10       29.93S HX  80           
KENOSHA        FAIR      81  64  56 S8        29.92S HX  82           
FOND DU LAC    FAIR      78  62  57 VRB3      29.90F HX  80           
SHEBOYGAN      FAIR      77  63  61 SW7       29.90F                  
WEST BEND      FAIR      75  59  57 N5        29.91S                  
JUNEAU         FAIR      75  60  59 CALM      29.92F                  
$$

LSZ147-162-171800-
LAKE SUPERIOR
  
STATION/POSITION TIME  TEMP    WIND        PRES    WAVE
                       AIR SEA DIR/SP/G            HT/PER
                 (UTC) (F)     (DEG/KT/KT) (MB)    (FT/S)
W MID LAKE BUOY  1650   66 66   CALM  /  2 1009.6F   1
DEVILS ISLAND    1700   71     110/  3/  4 1009.9S
SAXON HARBOR     1630   79     210/  3/ 10 1010.5R
$$
 
LMZ867-665-643>646-171800-
LAKE MICHIGAN
  
STATION/POSITION TIME  TEMP    WIND        PRES    WAVE
                       AIR SEA DIR/SP/G            HT/PER
                 (UTC) (F)     (DEG/KT/KT) (MB)    (FT/S)
S GREEN BAY BUOY 1700   74 70  190/  8/  8 1012.6F
N MID LAKE BUOY  1700   66     260/  4/  6 1012.7
NORTHPORT PIER   1640   73     300/  5/  6 1012.2S
KEWAUNEE LAKESHO 1648   77     270/  7/ 11 1012.0F
SHEBOYGAN LAKESH 1700   71     150/  8/  8 1012.3F
PORT WASHINGTON  1640   76     170/  6/  7 1013.5F
MILWAUKEE LAKESH 1450   74     220/  4/  5   N/A
S MID LAKE BUOY  1700   72     160/  4/  4 1013.8
KENOSHA   LAKESH 1700   75     140/  9/ 11 1012.9
$$

TC  - TEMPERATURE IN CELSIUS
VSB - VISIBILITY IN STATUTE MILES
WCI - WIND CHILL INDEX
HX  - HEAT INDEX